�������l�o���
Date,Time,MP-1(��Sv/h),MP-2(��Sv/h),MP-3(��Sv/h),MP-4(��Sv/h),MP-5(��Sv/h),MP-6(��Sv/h),MP-7(��Sv/h),MP-8(��Sv/h),����,����(m/s),���J
2017/12/06,00:00,0.867,1.415,0.902,1.695,1.151,0.485,0.867,0.833,�k�k��,7.8,��
2017/12/06,00:10,0.866,1.415,0.906,1.693,1.151,0.486,0.867,0.833,�k�k��,8.4,��
2017/12/06,00:20,0.868,1.418,0.905,1.694,1.149,0.485,0.867,0.833,�k�k��,8.5,��
2017/12/06,00:30,0.865,1.417,0.904,1.697,1.150,0.485,0.869,0.835,�k�k��,8.9,��
2017/12/06,00:40,0.867,1.415,0.905,1.695,1.149,0.487,0.868,0.833,�k�k��,8.1,��
2017/12/06,00:50,0.867,1.414,0.904,1.696,1.151,0.487,0.868,0.833,�k�k��,8.9,��
2017/12/06,01:00,0.867,1.418,0.906,1.697,1.151,0.486,0.867,0.833,�k�k��,9.1,��
2017/12/06,01:10,0.867,1.416,0.905,1.693,1.153,0.488,0.867,0.835,�k�k��,7.0,��
2017/12/06,01:20,0.868,1.417,0.906,1.697,1.149,0.488,0.867,0.834,�k�k��,7.2,��
2017/12/06,01:30,0.867,1.417,0.906,1.698,1.148,0.488,0.865,0.833,�k��,7.6,��
2017/12/06,01:40,0.868,1.418,0.907,1.700,1.151,0.488,0.868,0.835,�k��,7.5,��
2017/12/06,01:50,0.867,1.416,0.906,1.699,1.149,0.487,0.868,0.834,�k��,6.9,��
2017/12/06,02:00,0.867,1.419,0.907,1.697,1.149,0.488,0.869,0.835,�k��,6.7,��
2017/12/06,02:10,0.866,1.419,0.907,1.699,1.149,0.487,0.867,0.832,�k��,5.5,��
2017/12/06,02:20,0.866,1.417,0.905,1.698,1.152,0.488,0.869,0.835,�k��,5.6,��
2017/12/06,02:30,0.867,1.418,0.907,1.697,1.153,0.487,0.868,0.835,�k��,5.1,��
2017/12/06,02:40,0.869,1.418,0.908,1.698,1.150,0.486,0.867,0.835,�k�k��,6.0,�L
2017/12/06,02:50,0.869,1.419,0.907,1.700,1.153,0.487,0.868,0.834,�k��,5.7,�L
2017/12/06,03:00,0.868,1.420,0.907,1.698,1.150,0.487,0.869,0.835,�k��,6.5,��
2017/12/06,03:10,0.868,1.419,0.908,1.698,1.151,0.487,0.869,0.834,�k��,6.3,��
2017/12/06,03:20,0.867,1.418,0.907,1.697,1.151,0.487,0.868,0.835,�k��,6.3,��
2017/12/06,03:30,0.870,1.421,0.906,1.698,1.150,0.488,0.870,0.834,�k��,6.5,�L
2017/12/06,03:40,0.869,1.418,0.907,1.699,1.151,0.488,0.868,0.836,�k�k��,5.7,��
2017/12/06,03:50,0.868,1.420,0.908,1.700,1.153,0.487,0.870,0.835,�k�k��,5.8,��
2017/12/06,04:00,0.868,1.420,0.907,1.698,1.153,0.489,0.868,0.836,�k��,5.8,��
2017/12/06,04:10,0.869,1.420,0.908,1.699,1.151,0.488,0.869,0.836,�k�k��,6.6,�L
2017/12/06,04:20,0.868,1.423,0.908,1.699,1.151,0.488,0.869,0.835,�k�k��,5.9,�L
2017/12/06,04:30,0.870,1.422,0.908,1.701,1.153,0.489,0.870,0.833,�k�k��,5.7,�L
2017/12/06,04:40,0.869,1.423,0.907,1.700,1.152,0.488,0.870,0.836,�k�k��,5.1,��
2017/12/06,04:50,0.869,1.422,0.908,1.702,1.153,0.489,0.869,0.836,�k�k��,5.4,��
2017/12/06,05:00,0.870,1.421,0.906,1.698,1.153,0.488,0.870,0.836,�k�k��,5.3,��
2017/12/06,05:10,0.868,1.423,0.909,1.701,1.151,0.487,0.870,0.834,�k�k��,6.1,��
2017/12/06,05:20,0.869,1.421,0.908,1.700,1.152,0.488,0.870,0.837,�k�k��,5.5,��
2017/12/06,05:30,0.869,1.421,0.907,1.697,1.153,0.488,0.869,0.835,�k��,5.4,��
2017/12/06,05:40,0.866,1.421,0.907,1.699,1.153,0.487,0.868,0.836,�k��,4.0,�L
2017/12/06,05:50,0.869,1.422,0.908,1.699,1.154,0.488,0.870,0.833,�k��,4.7,��
2017/12/06,06:00,0.866,1.419,0.907,1.702,1.154,0.489,0.869,0.835,�k��,4.9,��
2017/12/06,06:10,0.870,1.422,0.908,1.702,1.153,0.488,0.869,0.835,�k��,5.7,��
2017/12/06,06:20,0.868,1.420,0.907,1.700,1.153,0.488,0.869,0.836,�k�k��,6.4,��
2017/12/06,06:30,0.867,1.421,0.908,1.702,1.152,0.486,0.869,0.836,�k�k��,5.5,��
2017/12/06,06:40,0.870,1.422,0.907,1.702,1.153,0.487,0.869,0.835,�k��,6.3,��
2017/12/06,06:50,0.867,1.419,0.907,1.701,1.154,0.487,0.869,0.834,�k�k��,4.9,��
2017/12/06,07:00,0.868,1.420,0.909,1.700,1.153,0.487,0.871,0.835,�k��,5.1,��
2017/12/06,07:10,0.870,1.420,0.907,1.703,1.153,0.487,0.869,0.834,�k�k��,6.9,��
2017/12/06,07:20,0.868,1.422,0.906,1.700,1.153,0.486,0.868,0.837,�k�k��,6.3,��
2017/12/06,07:30,0.869,1.420,0.907,1.698,1.153,0.488,0.868,0.833,�k�k��,5.4,��
2017/12/06,07:40,0.867,1.422,0.907,1.700,1.154,0.486,0.868,0.835,�k��,4.5,��
2017/12/06,07:50,0.869,1.421,0.905,1.701,1.152,0.487,0.870,0.834,�k�k��,4.6,��
2017/12/06,08:00,0.868,1.421,0.908,1.702,1.154,0.487,0.871,0.835,�k�k��,5.2,��
2017/12/06,08:10,0.867,1.422,0.906,1.700,1.155,0.486,0.869,0.834,�k��,4.4,��
2017/12/06,08:20,0.871,1.419,0.906,1.701,1.155,0.487,0.871,0.835,�k��,4.0,��
2017/12/06,08:30,0.867,1.419,0.908,1.699,1.156,0.488,0.868,0.837,�k��,4.1,��
2017/12/06,08:40,0.870,1.417,0.909,1.696,1.153,0.487,0.870,0.835,�k��,4.5,��
2017/12/06,08:50,0.870,1.418,0.907,1.700,1.154,0.487,0.870,0.836,�k��,5.0,��
2017/12/06,09:00,0.870,1.423,0.908,1.701,1.153,0.487,0.869,0.835,�k�k��,5.1,��
2017/12/06,09:10,0.869,1.421,0.906,1.701,1.155,0.487,0.870,0.836,�k��,5.0,��
2017/12/06,09:20,0.869,1.423,0.908,1.704,1.155,0.488,0.870,0.834,�k��,5.6,��
2017/12/06,09:30,0.870,1.423,0.908,1.700,1.154,0.488,0.870,0.834,�k��,4.8,��
2017/12/06,09:40,0.871,1.424,0.908,1.701,1.157,0.488,0.871,0.836,�k�k��,4.8,��
2017/12/06,09:50,0.869,1.425,0.908,1.704,1.156,0.486,0.869,0.834,�k,4.5,��
2017/12/06,10:00,0.870,1.424,0.906,1.704,1.155,0.487,0.868,0.836,�k�k��,4.0,��
2017/12/06,10:10,0.869,1.427,0.907,1.701,1.154,0.489,0.869,0.836,�k�k��,5.4,��
2017/12/06,10:20,0.869,1.420,0.909,1.702,1.154,0.488,0.869,0.836,�k�k��,7.1,��
2017/12/06,10:30,0.872,1.424,0.908,1.704,1.155,0.489,0.866,0.835,�k,5.5,��
2017/12/06,10:40,0.871,1.423,0.909,1.707,1.159,0.488,0.870,0.835,�k�k��,5.1,��
2017/12/06,10:50,0.871,1.421,0.910,1.706,1.161,0.487,0.868,0.838,�k�k��,7.9,��
2017/12/06,11:00,0.871,1.414,0.910,1.708,1.160,0.488,0.870,0.835,�k�k��,7.8,��
2017/12/06,11:10,0.871,1.426,0.909,1.708,1.159,0.488,0.868,0.836,�k�k��,6.3,��
2017/12/06,11:20,0.872,1.427,0.911,1.706,1.162,0.489,0.869,0.836,�k,6.5,��
2017/12/06,11:30,0.874,1.425,0.910,1.710,1.160,0.489,0.872,0.836,�k�k��,7.4,��
2017/12/06,11:40,0.873,1.429,0.913,1.707,1.161,0.488,0.872,0.835,�k�k��,6.6,��
2017/12/06,11:50,0.875,1.431,0.911,1.706,1.161,0.488,0.871,0.835,�k�k��,5.6,��
2017/12/06,12:00,0.873,1.427,0.911,1.710,1.161,0.489,0.872,0.834,�k�k��,6.5,��
2017/12/06,12:10,0.873,1.430,0.910,1.709,1.163,0.487,0.873,0.833,�k��,5.6,��
2017/12/06,12:20,0.876,1.431,0.912,1.708,1.163,0.489,0.873,0.835,�k��,5.0,��
2017/12/06,12:30,0.874,1.434,0.911,1.710,1.161,0.489,0.873,0.835,�k��,4.0,��
2017/12/06,12:40,0.876,1.431,0.914,1.709,1.163,0.489,0.872,0.836,���k��,5.0,��
2017/12/06,12:50,0.877,1.432,0.914,1.711,1.162,0.489,0.873,0.835,�k�k��,3.8,��
2017/12/06,13:00,0.878,1.431,0.914,1.709,1.162,0.489,0.871,0.836,�k��,5.4,��
2017/12/06,13:10,0.876,1.428,0.913,1.711,1.160,0.489,0.872,0.838,�k��,3.9,��
2017/12/06,13:20,0.874,1.431,0.913,1.708,1.163,0.489,0.873,0.838,�k��,4.8,��
2017/12/06,13:30,0.875,1.427,0.914,1.712,1.163,0.489,0.874,0.837,�k�k��,4.1,��
2017/12/06,13:40,0.876,1.428,0.913,1.711,1.163,0.488,0.875,0.837,�k,3.6,��
2017/12/06,13:50,0.876,1.435,0.913,1.711,1.165,0.489,0.873,0.838,�k�k��,5.9,��
2017/12/06,14:00,0.878,1.437,0.912,1.711,1.163,0.489,0.872,0.838,�k�k��,4.8,��
2017/12/06,14:10,0.877,1.421,0.913,1.712,1.165,0.490,0.872,0.838,�k,5.3,��
2017/12/06,14:20,0.877,1.425,0.914,1.709,1.164,0.490,0.873,0.838,�k,6.1,��
2017/12/06,14:30,0.875,1.437,0.914,1.712,1.166,0.488,0.874,0.839,�k,6.5,��
2017/12/06,14:40,0.877,1.436,0.915,1.711,1.165,0.487,0.873,0.838,�k�k��,7.4,��
2017/12/06,14:50,0.877,1.436,0.913,1.711,1.164,0.489,0.872,0.837,�k�k��,6.7,��
2017/12/06,15:00,0.875,1.435,0.912,1.715,1.164,0.489,0.873,0.839,�k�k��,5.5,��
2017/12/06,15:10,0.877,1.436,0.914,1.711,1.161,0.489,0.872,0.838,�k,5.1,��
2017/12/06,15:20,0.876,1.438,0.914,1.712,1.165,0.489,0.872,0.837,�k�k��,6.0,��
2017/12/06,15:30,0.875,1.437,0.914,1.715,1.164,0.487,0.873,0.839,�k,5.6,��
2017/12/06,15:40,0.875,1.436,0.915,1.712,1.165,0.491,0.872,0.837,�k,6.4,��
2017/12/06,15:50,0.875,1.439,0.913,1.712,1.166,0.489,0.871,0.837,�k�k��,7.4,��
2017/12/06,16:00,0.877,1.437,0.914,1.711,1.167,0.491,0.873,0.838,�k,6.6,��
2017/12/06,16:10,0.875,1.437,0.914,1.716,1.164,0.489,0.871,0.836,�k,6.7,��
2017/12/06,16:20,0.876,1.439,0.912,1.714,1.165,0.488,0.872,0.837,�k,5.4,��
2017/12/06,16:30,0.873,1.439,0.912,1.712,1.165,0.488,0.872,0.838,�k,6.4,��
2017/12/06,16:40,0.874,1.440,0.913,1.713,1.166,0.488,0.871,0.837,�k,7.3,��
2017/12/06,16:50,0.876,1.441,0.911,1.710,1.165,0.487,0.873,0.837,�k,7.1,��
2017/12/06,17:00,0.875,1.443,0.913,1.711,1.165,0.488,0.872,0.837,�k�k��,7.7,��
2017/12/06,17:10,0.874,1.440,0.912,1.713,1.163,0.487,0.870,0.838,�k�k��,7.1,��
2017/12/06,17:20,0.874,1.441,0.914,1.710,1.166,0.487,0.871,0.837,�k�k��,7.2,��
2017/12/06,17:30,0.875,1.442,0.912,1.711,1.164,0.489,0.873,0.836,�k�k��,6.7,��
2017/12/06,17:40,0.876,1.440,0.913,1.711,1.165,0.490,0.871,0.836,�k�k��,6.9,��
2017/12/06,17:50,0.873,1.441,0.912,1.713,1.162,0.488,0.870,0.837,�k�k��,6.9,��
2017/12/06,18:00,0.874,1.443,0.911,1.711,1.165,0.489,0.872,0.835,�k�k��,5.6,��
2017/12/06,18:10,0.873,1.441,0.914,1.713,1.165,0.488,0.871,0.836,�k�k��,6.0,��
2017/12/06,18:20,0.874,1.440,0.912,1.711,1.162,0.488,0.871,0.836,�k�k��,5.9,��
2017/12/06,18:30,0.872,1.440,0.912,1.712,1.163,0.489,0.871,0.837,�k�k��,5.2,��
2017/12/06,18:40,0.875,1.441,0.912,1.710,1.164,0.488,0.869,0.837,�k�k��,5.4,��
2017/12/06,18:50,0.874,1.440,0.910,1.713,1.162,0.488,0.871,0.837,�k�k��,5.9,��
2017/12/06,19:00,0.874,1.444,0.911,1.712,1.166,0.488,0.871,0.837,�k�k��,6.5,��
2017/12/06,19:10,0.872,1.443,0.913,1.714,1.163,0.488,0.871,0.837,�k�k��,6.5,��
2017/12/06,19:20,0.873,1.442,0.911,1.708,1.161,0.488,0.872,0.837,�k�k��,6.4,��
2017/12/06,19:30,0.873,1.441,0.911,1.711,1.165,0.489,0.870,0.837,�k�k��,6.7,��
2017/12/06,19:40,0.873,1.439,0.912,1.712,1.166,0.487,0.870,0.836,�k�k��,6.7,��
2017/12/06,19:50,0.873,1.441,0.911,1.714,1.162,0.488,0.870,0.837,�k�k��,6.8,��
2017/12/06,20:00,0.872,1.441,0.912,1.714,1.166,0.488,0.871,0.836,�k��,6.4,��
2017/12/06,20:10,0.873,1.442,0.913,1.713,1.165,0.487,0.870,0.836,�k��,6.5,��
2017/12/06,20:20,0.873,1.441,0.911,1.714,1.164,0.487,0.868,0.837,�k��,6.2,��
2017/12/06,20:30,0.873,1.440,0.912,1.714,1.167,0.489,0.869,0.835,�k��,6.4,��
2017/12/06,20:40,0.872,1.440,0.912,1.713,1.162,0.487,0.870,0.839,�k�k��,5.8,��
2017/12/06,20:50,0.874,1.441,0.910,1.711,1.162,0.488,0.869,0.836,�k��,5.1,��
2017/12/06,21:00,0.873,1.441,0.913,1.712,1.163,0.488,0.870,0.838,�k��,5.5,��
2017/12/06,21:10,0.875,1.440,0.912,1.712,1.165,0.488,0.871,0.836,�k��,5.3,��
2017/12/06,21:20,0.873,1.439,0.914,1.715,1.162,0.487,0.869,0.835,�k��,4.9,��
2017/12/06,21:30,0.875,1.441,0.912,1.713,1.163,0.489,0.869,0.837,�k��,5.0,��
2017/12/06,21:40,0.874,1.442,0.912,1.714,1.165,0.489,0.870,0.836,�k��,5.0,��
2017/12/06,21:50,0.874,1.442,0.914,1.712,1.166,0.488,0.870,0.837,�k��,5.0,��
2017/12/06,22:00,0.874,1.442,0.911,1.714,1.164,0.490,0.868,0.836,�k��,5.3,��
2017/12/06,22:10,0.873,1.441,0.913,1.713,1.165,0.487,0.869,0.838,�k�k��,4.8,��
2017/12/06,22:20,0.872,1.441,0.912,1.712,1.164,0.488,0.869,0.836,�k�k��,5.1,��
2017/12/06,22:30,0.872,1.443,0.912,1.715,1.164,0.488,0.872,0.836,�k�k��,5.5,��
2017/12/06,22:40,0.872,1.440,0.912,1.714,1.162,0.488,0.870,0.836,�k�k��,5.6,��
2017/12/06,22:50,0.873,1.443,0.910,1.714,1.164,0.487,0.869,0.837,�k�k��,6.0,��
2017/12/06,23:00,0.871,1.442,0.912,1.713,1.163,0.487,0.872,0.837,�k�k��,6.2,��
2017/12/06,23:10,0.872,1.440,0.912,1.714,1.165,0.487,0.869,0.837,�k�k��,6.9,��
2017/12/06,23:20,0.874,1.442,0.913,1.713,1.163,0.488,0.870,0.836,�k�k��,6.9,��
2017/12/06,23:30,0.874,1.440,0.913,1.712,1.163,0.489,0.871,0.836,�k�k��,6.6,��
2017/12/06,23:40,0.872,1.441,0.911,1.716,1.163,0.488,0.870,0.837,�k�k��,6.3,��
2017/12/06,23:50,0.874,1.441,0.914,1.716,1.165,0.486,0.869,0.836,�k��,6.4,��
